星链-34634 (STARLINK-34634)

导读

STARLINK-34634是美国SpaceX公司星链(Starlink)星座的一颗低轨通信卫星,于2025年8月4日发射升空。星链项目旨在为全球提供高速低延迟宽带互联网服务,尤其覆盖传统基础设施匮乏的偏远地区。 该卫星采用平板设计搭载太阳电池阵,配备氪工质霍尔推进器,具备自主避撞能力,设计寿命约5至7年。寿命末期会主动离轨,再入大气层焚毁,减少太空碎片影响,助力星链低轨星座的全球组网部署。

Basic Information
目录编号:
65079
目录名称:
STARLINK-34634
国际标识:
2025-167B
轨道中心:
EARTH
卫星名称:
星链-34634
卫星全名:
星链-34634 (STARLINK-34634)
卫星状态:
在轨 (已飞行403 天)
发射日期:
2025-08-04 UTC
国别 :
美国 (US)
星等 :
--
This satellite is enrolled in the Space Conjunction Data Service (SCDS) and the current flight risk assessment level is: High Risk
Orbit Information
数据来源 国际轨道数据 AOE轨道数据
星历时间 2026-09-11T13:27:13+0800
12小时前
查看轨道信息
2026-09-05T22:00:00+0800
6天前
查看轨道信息
半长轴 6840.84km 6840.725km
偏心率 0.0001622 0.00016
轨道倾角 53.157° 53.159°
近地点辐角 90.194° 51.775°
升交点赤经 238.724° 265.112°
平近点角 269.925° 75.120°
近地点 461.593km 461.493km
远地点 463.813km 463.683km
周期 93.848分钟 93.845分钟
每日圈数 15.344003 15.344391
Detailed Information
固有亮度:
5
最大亮度:
2.5
卫星平台:
Starlink V1.0
覆盖范围:
全球
运营商:
太空探索技术公司
运营商所在国:
美国
制造商(研发单位):
太空探索技术公司
制造商所在国:
美国
使用方式:
暂无
Satellite Introduction
Starlink 计划是 SpaceX 推出的全球卫星互联网项目,通过发射低轨道卫星,为全球尤其是偏远地区提供高速、低延迟的互联网服务。自 2019 年起,Starlink 已部署数千颗卫星,旨在缩小全球数字鸿沟,推动互联网普及。该项目还为军事、航空等行业提供通信支持,带来广泛经济效益。
2D Orbit Map
3D Orbit Map
Orbit Altitude Analysis Chart
Orbit Inclination Analysis Chart
Orbit Comprehensive Analysis Chart
View Comprehensive Chart
Conjunction Data List
Event ID Objects TCA Miss Dist (km) Collision Risk Probability Collision Risk Index (CRI) Action
CDM_260912-003406-507906-855521
2026-09-12T
00:34:27+0000
0.342 km
远距离
1.733477E-4 高风险 0.8
CDM_260912-042806-507906-855521
2026-09-12T
04:28:55+0000
0.673 km
远距离
2.862001E-5 中风险 0.64
CDM_260914-010705-478406-507921
2026-09-14T
01:07:04+0000
1.583 km
极远距离
2.554853E-6 低风险 0.43
CDM_260913-102605-270406-507921
2026-09-13T
10:26:32+0000
2.947 km
极远距离
1.163941E-6 低风险 0.36
CDM_260914-050105-478406-507921
2026-09-14T
05:01:33+0000
2.424 km
极远距离
9.222908E-7 极低风险 0.34
CDM_260912-020806-507906-855521
2026-09-12T
02:08:14+0000
2.054 km
极远距离
8.967706E-7 极低风险 0.34
CDM_260914-032705-478406-507921
2026-09-14T
03:27:45+0000
2.719 km
极远距离
7.733294E-7 极低风险 0.33
CDM_260912-025506-507906-855521
2026-09-12T
02:55:08+0000
2.212 km
极远距离
7.716208E-7 极低风险 0.33
CDM_260912-060206-507906-855521
2026-09-12T
06:02:42+0000
2.586 km
极远距离
5.9475E-7 极低风险 0.3
CDM_260911-230006-507906-855521
2026-09-11T
23:00:39+0000
2.699 km
极远距离
5.617495E-7 极低风险 0.3
Miss Distance Evolution Trend with All Objects
Collision Probability Evolution Trend with All Objects